timestamp,wind_dir_avg,wind_spd_max_dir,wind_spd_avg,wind_spd_gust,battery_voltage,lat,long
2017-10-28 00:00:00+00:00,266.0,268.0,3.92,4.78,12.7,47.59359,-54.27349
2017-10-28 00:10:00+00:00,260.0,261.0,1.86,2.3,12.6,47.59359,-54.27349
2017-10-28 00:20:00+00:00,250.0,255.0,2.51,2.86,12.7,47.59359,-54.27349
2017-10-28 00:30:00+00:00,248.0,250.0,3.47,3.72,12.7,47.59359,-54.27349
2017-10-28 00:40:00+00:00,246.0,248.0,1.94,2.3,12.7,47.59359,-54.27349
2017-10-28 00:50:00+00:00,262.0,263.0,4.46,4.91,12.7,47.59359,-54.27349
2017-10-28 01:00:00+00:00,260.0,258.0,5.43,5.94,12.6,47.59359,-54.27349
2017-10-28 01:10:00+00:00,280.0,288.0,2.22,2.68,12.6,47.59359,-54.27349
2017-10-28 01:20:00+00:00,274.0,277.0,1.71,2.02,12.7,47.59359,-54.27349
2017-10-28 01:30:00+00:00,215.0,219.0,1.16,1.36,12.7,47.59359,-54.27349
2017-10-28 01:40:00+00:00,213.0,206.0,1.24,1.46,12.7,47.59359,-54.27349
2017-10-28 01:50:00+00:00,249.0,253.0,1.92,2.44,12.7,47.59359,-54.27349
2017-10-28 02:00:00+00:00,249.0,241.0,1.06,1.28,12.6,47.59359,-54.27349
2017-10-28 02:10:00+00:00,252.0,248.0,1.91,2.28,12.6,47.59359,-54.27349
2017-10-28 02:20:00+00:00,256.0,259.0,3.03,3.5,12.7,47.59359,-54.27349
2017-10-28 02:30:00+00:00,268.0,271.0,3.62,4.2,12.7,47.59359,-54.27349
2017-10-28 02:40:00+00:00,245.0,246.0,2.26,2.8,12.7,47.59359,-54.27349
2017-10-28 02:50:00+00:00,262.0,263.0,2.62,2.94,12.7,47.59359,-54.27349
2017-10-28 03:00:00+00:00,271.0,266.0,3.09,3.37,12.6,47.59359,-54.27349
2017-10-28 03:10:00+00:00,262.0,262.0,2.91,3.26,12.6,47.59359,-54.27349
2017-10-28 03:20:00+00:00,257.0,258.0,3.47,3.69,12.7,47.59359,-54.27349
2017-10-28 03:30:00+00:00,259.0,258.0,2.88,3.18,12.7,47.59359,-54.27349
2017-10-28 03:40:00+00:00,266.0,263.0,2.87,3.2,12.7,47.59359,-54.27349
2017-10-28 03:50:00+00:00,260.0,261.0,3.34,3.74,12.7,47.59359,-54.27349
2017-10-28 04:00:00+00:00,261.0,252.0,3.15,3.55,12.6,47.59359,-54.27349
2017-10-28 04:10:00+00:00,260.0,261.0,2.79,3.03,12.6,47.59359,-54.27349
2017-10-28 04:20:00+00:00,272.0,268.0,2.68,3.03,12.6,47.59359,-54.27349
2017-10-28 04:30:00+00:00,260.0,253.0,2.98,3.27,12.6,47.59359,-54.27349
2017-10-28 04:40:00+00:00,285.0,283.0,2.55,2.89,12.7,47.59359,-54.27349
2017-10-28 04:50:00+00:00,274.0,276.0,2.28,2.69,12.7,47.59359,-54.27349
2017-10-28 05:00:00+00:00,283.0,287.0,1.66,1.99,12.6,47.59359,-54.27349
2017-10-28 05:10:00+00:00,294.0,280.0,0.42,0.84,12.6,47.59359,-54.27349
2017-10-28 05:20:00+00:00,293.0,287.0,1.01,1.33,12.6,47.59359,-54.27349
2017-10-28 05:30:00+00:00,284.0,282.0,1.14,1.41,12.6,47.59359,-54.27349
2017-10-28 05:40:00+00:00,294.0,293.0,0.61,0.8,12.6,47.59359,-54.27349
2017-10-28 05:50:00+00:00,304.0,302.0,1.41,1.64,12.6,47.59359,-54.27349
2017-10-28 06:00:00+00:00,301.0,302.0,2.45,2.7,12.6,47.59359,-54.27349
2017-10-28 06:10:00+00:00,304.0,306.0,3.38,3.79,12.6,47.59359,-54.27349
2017-10-28 06:20:00+00:00,5.0,1.0,5.22,5.69,12.6,47.59359,-54.27349
2017-10-28 06:30:00+00:00,11.0,13.0,4.34,4.88,12.6,47.59359,-54.27349
2017-10-28 06:40:00+00:00,10.0,11.0,4.07,4.62,12.6,47.59359,-54.27349
2017-10-28 06:50:00+00:00,26.0,24.0,3.94,5.33,12.6,47.59359,-54.27349
2017-10-28 07:00:00+00:00,30.0,37.0,3.12,3.6,12.6,47.59359,-54.27349
2017-10-28 07:10:00+00:00,52.0,45.0,3.49,3.82,12.6,47.59359,-54.27349
2017-10-28 07:20:00+00:00,54.0,56.0,3.12,3.65,12.6,47.59359,-54.27349
2017-10-28 07:30:00+00:00,22.0,14.0,1.92,2.49,12.6,47.59359,-54.27349
2017-10-28 07:40:00+00:00,5.0,0.0,1.2,1.67,12.6,47.59359,-54.27349
2017-10-28 07:50:00+00:00,357.0,353.0,2.3,3.02,12.6,47.59359,-54.27349
2017-10-28 08:00:00+00:00,341.0,343.0,3.7,4.83,12.6,47.59359,-54.27349
2017-10-28 08:10:00+00:00,321.0,322.0,2.88,3.25,12.6,47.59359,-54.27349
2017-10-28 08:20:00+00:00,304.0,302.0,3.0,3.42,12.6,47.59359,-54.27349
2017-10-28 08:30:00+00:00,305.0,304.0,3.01,3.58,12.6,47.59359,-54.27349
2017-10-28 08:40:00+00:00,309.0,316.0,4.25,4.83,12.6,47.59359,-54.27349
2017-10-28 08:50:00+00:00,316.0,318.0,4.63,4.96,12.6,47.59359,-54.27349
2017-10-28 09:00:00+00:00,322.0,319.0,3.44,3.76,12.6,47.59359,-54.27349
2017-10-28 09:10:00+00:00,317.0,322.0,4.09,4.71,12.5,47.59359,-54.27349
2017-10-28 09:20:00+00:00,349.0,348.0,5.43,6.03,12.6,47.59359,-54.27349
2017-10-28 09:30:00+00:00,340.0,340.0,4.64,5.33,12.6,47.59359,-54.27349
2017-10-28 09:40:00+00:00,302.0,301.0,4.48,5.1,12.6,47.59359,-54.27349
2017-10-28 09:50:00+00:00,307.0,310.0,3.78,4.23,12.6,47.59359,-54.27349
2017-10-28 10:00:00+00:00,322.0,328.0,3.13,3.45,12.6,47.59359,-54.27349
2017-10-28 10:10:00+00:00,312.0,310.0,2.83,3.38,12.5,47.59359,-54.27349
2017-10-28 10:20:00+00:00,302.0,306.0,2.79,3.17,12.6,47.59359,-54.27349
2017-10-28 10:30:00+00:00,302.0,307.0,1.43,1.76,12.6,47.59359,-54.27349
2017-10-28 10:40:00+00:00,306.0,306.0,1.5,1.79,12.6,47.59359,-54.27349
2017-10-28 10:50:00+00:00,330.0,329.0,1.42,1.74,12.6,47.59359,-54.27349
2017-10-28 11:00:00+00:00,329.0,331.0,0.92,1.26,12.6,47.59359,-54.27349
2017-10-28 11:10:00+00:00,305.0,312.0,1.11,1.43,12.5,47.59359,-54.27349
2017-10-28 11:20:00+00:00,350.0,345.0,0.95,1.08,12.6,47.59359,-54.27349
2017-10-28 11:30:00+00:00,337.0,340.0,1.38,1.59,12.6,47.59359,-54.27349
2017-10-28 11:40:00+00:00,54.0,57.0,1.27,1.49,12.6,47.59359,-54.27349
2017-10-28 11:50:00+00:00,31.0,51.0,1.09,1.36,12.6,47.59359,-54.27349
2017-10-28 12:00:00+00:00,39.0,52.0,1.17,1.49,12.6,47.59359,-54.27349
2017-10-28 12:10:00+00:00,64.0,69.0,2.42,2.69,12.6,47.59359,-54.27349
2017-10-28 12:20:00+00:00,64.0,63.0,2.07,2.34,12.6,47.59359,-54.27349
2017-10-28 12:30:00+00:00,79.0,74.0,1.54,1.77,12.6,47.59359,-54.27349
2017-10-28 12:40:00+00:00,74.0,77.0,1.14,1.63,12.7,47.59359,-54.27349
2017-10-28 12:50:00+00:00,61.0,59.0,2.54,2.85,12.8,47.59359,-54.27349
2017-10-28 13:00:00+00:00,73.0,71.0,2.12,2.34,12.8,47.59359,-54.27349
2017-10-28 13:10:00+00:00,84.0,87.0,2.49,3.06,12.7,47.59359,-54.27349
2017-10-28 13:20:00+00:00,85.0,86.0,2.65,3.16,12.9,47.59359,-54.27349
2017-10-28 13:30:00+00:00,76.0,86.0,2.96,3.51,13.0,47.59359,-54.27349
2017-10-28 13:40:00+00:00,75.0,77.0,3.19,3.95,13.1,47.59359,-54.27349
2017-10-28 13:50:00+00:00,57.0,61.0,2.59,2.9,13.2,47.59359,-54.27349
2017-10-28 14:00:00+00:00,57.0,55.0,1.39,1.63,13.4,47.59359,-54.27349
2017-10-28 14:10:00+00:00,63.0,74.0,2.12,2.43,13.3,47.59359,-54.27349
2017-10-28 14:20:00+00:00,71.0,76.0,1.84,2.21,13.4,47.59359,-54.27349
2017-10-28 14:30:00+00:00,54.0,50.0,1.33,1.64,13.5,47.59359,-54.27349
2017-10-28 14:40:00+00:00,63.0,62.0,1.89,2.39,13.5,47.59359,-54.27349
2017-10-28 14:50:00+00:00,357.0,2.0,1.06,1.31,13.7,47.59359,-54.27349
2017-10-28 15:00:00+00:00,345.0,341.0,1.16,1.69,13.7,47.59359,-54.27349
2017-10-28 15:10:00+00:00,307.0,310.0,1.41,1.76,13.7,47.59359,-54.27349
2017-10-28 15:20:00+00:00,310.0,300.0,0.66,0.91,13.9,47.59359,-54.27349
2017-10-28 15:30:00+00:00,43.0,60.0,0.3,0.74,13.7,47.59359,-54.27349
2017-10-28 15:40:00+00:00,120.0,125.0,0.63,0.82,14.2,47.59359,-54.27349
2017-10-28 15:50:00+00:00,142.0,135.0,0.88,1.14,13.9,47.59359,-54.27349
2017-10-28 16:00:00+00:00,166.0,165.0,1.09,1.24,13.8,47.59359,-54.27349
2017-10-28 16:10:00+00:00,193.0,192.0,1.31,1.61,13.7,47.59359,-54.27349
2017-10-28 16:20:00+00:00,168.0,175.0,1.43,1.67,13.8,47.59359,-54.27349
2017-10-28 16:30:00+00:00,178.0,178.0,1.18,1.37,13.7,47.59359,-54.27349
2017-10-28 16:40:00+00:00,207.0,198.0,1.09,1.26,13.8,47.59359,-54.27349
2017-10-28 16:50:00+00:00,147.0,161.0,0.97,1.3,13.9,47.59359,-54.27349
2017-10-28 17:00:00+00:00,138.0,141.0,1.65,1.93,13.7,47.59359,-54.27349
2017-10-28 17:10:00+00:00,159.0,156.0,1.17,1.4,13.7,47.59359,-54.27349
2017-10-28 17:20:00+00:00,190.0,191.0,1.05,1.34,13.7,47.59359,-54.27349
2017-10-28 17:30:00+00:00,179.0,162.0,0.81,0.96,13.7,47.59359,-54.27349
2017-10-28 17:40:00+00:00,226.0,226.0,1.0,1.34,13.7,47.59359,-54.27349
2017-10-28 17:50:00+00:00,259.0,261.0,2.1,2.34,13.7,47.59359,-54.27349
2017-10-28 18:00:00+00:00,248.0,251.0,2.63,3.05,13.8,47.59359,-54.27349
2017-10-28 18:10:00+00:00,247.0,246.0,2.5,2.85,13.8,47.59359,-54.27349
2017-10-28 18:20:00+00:00,235.0,248.0,1.88,2.2,13.8,47.59359,-54.27349
2017-10-28 18:30:00+00:00,216.0,218.0,2.28,2.5,13.7,47.59359,-54.27349
2017-10-28 18:40:00+00:00,220.0,219.0,2.65,2.98,13.7,47.59359,-54.27349
2017-10-28 18:50:00+00:00,181.0,186.0,1.87,2.06,13.7,47.59359,-54.27349
2017-10-28 19:00:00+00:00,175.0,179.0,1.65,1.81,13.7,47.59359,-54.27349
2017-10-28 19:10:00+00:00,204.0,207.0,1.51,1.65,13.5,47.59359,-54.27349
2017-10-28 19:20:00+00:00,200.0,198.0,1.42,1.57,13.7,47.59359,-54.27349
2017-10-28 19:30:00+00:00,215.0,213.0,1.32,1.52,13.6,47.59359,-54.27349
2017-10-28 19:40:00+00:00,212.0,215.0,1.9,1.99,13.7,47.59359,-54.27349
2017-10-28 19:50:00+00:00,201.0,208.0,1.22,1.38,13.5,47.59359,-54.27349
2017-10-28 20:00:00+00:00,215.0,218.0,0.79,0.9,13.4,47.59359,-54.27349
2017-10-28 20:10:00+00:00,213.0,215.0,0.31,0.53,13.1,47.59359,-54.27349
2017-10-28 20:20:00+00:00,37.0,31.0,0.32,0.51,13.1,47.59359,-54.27349
2017-10-28 20:30:00+00:00,94.0,83.0,2.81,4.1,13.0,47.59359,-54.27349
2017-10-28 20:40:00+00:00,99.0,101.0,2.52,3.6,13.0,47.59359,-54.27349
2017-10-28 20:50:00+00:00,106.0,110.0,2.67,4.09,13.0,47.59359,-54.27349
2017-10-28 21:00:00+00:00,116.0,133.0,2.31,3.79,12.9,47.59359,-54.27349
2017-10-28 21:10:00+00:00,124.0,132.0,2.38,3.36,12.7,47.59359,-54.27349
2017-10-28 21:20:00+00:00,130.0,134.0,3.08,3.66,12.8,47.59359,-54.27349
2017-10-28 21:30:00+00:00,122.0,87.0,1.52,2.49,12.8,47.59359,-54.27349
2017-10-28 21:40:00+00:00,112.0,124.0,2.04,2.75,12.8,47.59359,-54.27349
2017-10-28 21:50:00+00:00,122.0,99.0,1.39,2.27,12.8,47.59359,-54.27349
2017-10-28 22:00:00+00:00,144.0,140.0,1.62,1.88,12.7,47.59359,-54.27349
2017-10-28 22:10:00+00:00,150.0,151.0,1.28,1.37,12.6,47.59359,-54.27349
2017-10-28 22:20:00+00:00,148.0,144.0,0.95,1.05,12.8,47.59359,-54.27349
2017-10-28 22:30:00+00:00,122.0,121.0,0.47,0.58,12.8,47.59359,-54.27349
2017-10-28 22:40:00+00:00,293.0,291.0,1.02,1.18,12.8,47.59359,-54.27349
2017-10-28 22:50:00+00:00,279.0,279.0,1.48,1.77,12.8,47.59359,-54.27349
2017-10-28 23:00:00+00:00,291.0,289.0,1.63,1.83,12.7,47.59359,-54.27349
2017-10-28 23:10:00+00:00,304.0,306.0,1.3,1.51,12.6,47.59359,-54.27349
2017-10-28 23:20:00+00:00,305.0,307.0,1.02,1.2,12.7,47.59359,-54.27349
2017-10-28 23:30:00+00:00,287.0,287.0,0.89,1.03,12.7,47.59359,-54.27349
2017-10-28 23:40:00+00:00,327.0,328.0,0.48,0.6,12.8,47.59359,-54.27349
2017-10-28 23:50:00+00:00,1.0,358.0,0.56,0.62,12.8,47.59359,-54.27349
